21-06-2023, 00:00:08,    211,    0.0,   13.3,   0.00,   0.00, 1009.0,    0.4, -999.0
21-06-2023, 00:00:18,    212,    0.0,   13.3,   0.00,   0.00, 1008.9,    0.6, -999.0
21-06-2023, 00:00:28,    212,    0.0,   13.3,   0.00,   0.00, 1009.0,    0.4, -999.0
21-06-2023, 00:00:38,    211,    0.0,   13.3,   0.00,   0.00, 1009.0,    0.4, -999.0
21-06-2023, 00:00:47,    211,    0.0,   13.3,   0.00,   0.00, 1009.0,    0.5, -999.0
21-06-2023, 00:00:58,    212,    0.0,   13.3,   0.00,   0.00, 1009.0,    0.4, -999.0
21-06-2023, 00:01:08,    212,    0.0,   13.3,   0.00,   0.00, 1008.9,    0.3, -999.0
21-06-2023, 00:01:18,    211,    0.0,   13.3,   0.00,   0.00, 1009.0,    0.5, -999.0
21-06-2023, 00:01:27,    212,    0.0,   13.3,   0.00,   0.00, 1009.0,    0.5, -999.0
21-06-2023, 00:01:38,    210,    0.0,   13.2,   0.00,   0.00, 1009.0,    0.5, -999.0
21-06-2023, 00:01:48,    197,    0.2,   13.2,   0.00,   0.00, 1009.0,    0.4, -999.0
21-06-2023, 00:01:57,    196,    0.2,   13.3,   0.00,   0.00, 1009.0,    0.4, -999.0
21-06-2023, 00:02:07,    197,    0.0,   13.1,   0.00,   0.00, 1009.0,    0.8, -999.0
21-06-2023, 00:02:18,    197,    0.0,   13.2,   0.00,   0.00, 1009.0,    0.4, -999.0
21-06-2023, 00:02:28,    202,    0.3,   13.3,   0.00,   0.00, 1009.1,    0.5, -999.0
21-06-2023, 00:02:37,    201,    0.0,   13.2,   0.00,   0.00, 1009.0,    0.6, -999.0
21-06-2023, 00:02:47,    202,    0.0,   13.3,   0.00,   0.00, 1009.0,    0.7, -999.0
21-06-2023, 00:02:58,    201,    0.0,   13.3,   0.00,   0.00, 1009.0,    0.5, -999.0
21-06-2023, 00:03:07,    202,    0.0,   13.3,   0.00,   0.00, 1009.0,    0.2, -999.0
21-06-2023, 00:03:17,    202,    0.0,   13.3,   0.00,   0.00, 1009.0,    0.4, -999.0
21-06-2023, 00:03:27,    202,    0.0,   13.3,   0.00,   0.00, 1009.0,    0.5, -999.0
21-06-2023, 00:03:37,    209,    0.7,   13.3,   0.00,   0.00, 1009.0,    0.4, -999.0
21-06-2023, 00:03:47,    209,    0.3,   13.3,   0.00,   0.00, 1009.1,    0.6, -999.0
21-06-2023, 00:03:57,    208,    0.0,   13.2,   0.00,   0.00, 1009.0,    0.3, -999.0
21-06-2023, 00:04:07,    209,    0.0,   13.2,   0.00,   0.00, 1009.0,    0.6, -999.0
21-06-2023, 00:04:17,    209,    0.0,   13.3,   0.00,   0.00, 1009.0,    0.4, -999.0
21-06-2023, 00:04:27,    209,    0.0,   13.3,   0.00,   0.00, 1009.0,    0.4, -999.0
21-06-2023, 00:04:37,    208,    0.0,   13.3,   0.00,   0.00, 1009.0,    0.4, -999.0
21-06-2023, 00:04:47,    211,    0.0,   13.2,   0.00,   0.00, 1009.0,    0.5, -999.0
21-06-2023, 00:04:57,    212,    0.3,   13.3,   0.00,   0.00, 1009.1,    0.6, -999.0
21-06-2023, 00:05:07,    212,    0.0,   13.3,   0.00,   0.00, 1009.0,    0.4, -999.0
21-06-2023, 00:05:17,    212,    0.0,   13.3,   0.00,   0.00, 1009.0,    0.3, -999.0
21-06-2023, 00:05:27,    212,    0.0,   13.3,   0.00,   0.00, 1009.0,    0.8, -999.0
21-06-2023, 00:05:37,    213,    0.3,   13.3,   0.00,   0.00, 1009.1,    0.5, -999.0
21-06-2023, 00:05:47,    214,    0.0,   13.2,   0.00,   0.00, 1009.1,    0.5, -999.0
21-06-2023, 00:05:57,    214,    0.0,   13.3,   0.00,   0.00, 1009.0,    0.3, -999.0
21-06-2023, 00:06:07,    214,    0.0,   13.3,   0.00,   0.00, 1009.0,    0.3, -999.0
21-06-2023, 00:06:17,    214,    0.0,   13.3,   0.00,   0.00, 1009.0,    0.3, -999.0
21-06-2023, 00:06:27,    214,    0.0,   13.3,   0.00,   0.00, 1009.0,    0.5, -999.0
21-06-2023, 00:06:37,    215,    0.0,   13.2,   0.00,   0.00, 1009.0,    0.3, -999.0
21-06-2023, 00:06:47,    214,    0.0,   13.2,   0.00,   0.00, 1009.0,    0.6, -999.0
21-06-2023, 00:06:57,    214,    0.0,   13.2,   0.00,   0.00, 1009.0,    0.3, -999.0
21-06-2023, 00:07:07,    214,    0.0,   13.2,   0.00,   0.00, 1009.0,    0.4, -999.0
21-06-2023, 00:07:17,    214,    0.0,   13.3,   0.00,   0.00, 1009.0,    0.4, -999.0
21-06-2023, 00:07:27,    214,    0.0,   13.3,   0.00,   0.00, 1009.0,    0.5, -999.0
21-06-2023, 00:07:37,    214,    0.0,   13.3,   0.00,   0.00, 1009.0,    0.6, -999.0
21-06-2023, 00:07:47,    213,    0.0,   13.2,   0.00,   0.00, 1009.0,    0.4, -999.0
21-06-2023, 00:07:57,    214,    0.0,   13.3,   0.00,   0.00, 1009.0,    0.5, -999.0
21-06-2023, 00:08:07,    214,    0.0,   13.3,   0.00,   0.00, 1009.0,    0.6, -999.0
21-06-2023, 00:08:17,    214,    0.0,   13.1,   0.00,   0.00, 1009.0,    0.5, -999.0
21-06-2023, 00:08:27,    214,    0.0,   13.2,   0.00,   0.00, 1009.0,    0.5, -999.0
21-06-2023, 00:08:36,    215,    0.0,   13.3,   0.00,   0.00, 1009.0,    0.3, -999.0
21-06-2023, 00:08:47,    215,    0.0,   13.3,   0.00,   0.00, 1009.0,    0.3, -999.0
21-06-2023, 00:08:57,    215,    0.0,   13.3,   0.00,   0.00, 1009.0,    0.5, -999.0
21-06-2023, 00:09:07,    215,    0.0,   13.3,   0.00,   0.00, 1009.0,    0.5, -999.0
21-06-2023, 00:09:16,    214,    0.0,   13.3,   0.00,   0.00, 1009.0,    0.6, -999.0
21-06-2023, 00:09:27,    214,    0.0,   13.3,   0.00,   0.00, 1009.0,    0.6, -999.0
21-06-2023, 00:09:37,    217,    0.0,   13.2,   0.00,   0.00, 1009.0,    0.4, -999.0
21-06-2023, 00:09:46,    217,    0.0,   13.2,   0.00,   0.00, 1009.0,    0.5, -999.0
21-06-2023, 00:09:56,    213,    0.7,   13.4,   0.00,   0.00, 1009.1,    0.1, -999.0
21-06-2023, 00:10:07,    199,    1.0,   13.4,   0.00,   0.00, 1009.1,    0.0, -999.0
21-06-2023, 00:10:17,    199,    0.5,   13.3,   0.00,   0.00, 1009.1,    0.3, -999.0
21-06-2023, 00:10:26,    204,    0.0,   13.2,   0.00,   0.00, 1009.0,    0.4, -999.0
21-06-2023, 00:10:37,    205,    0.1,   13.2,   0.00,   0.00, 1009.1,    0.2, -999.0
21-06-2023, 00:10:47,    206,    0.0,   13.2,   0.00,   0.00, 1009.0,    0.5, -999.0
21-06-2023, 00:10:56,    207,    0.0,   13.1,   0.00,   0.00, 1009.0,    0.3, -999.0
21-06-2023, 00:11:06,    235,    0.1,   13.2,   0.00,   0.00, 1009.1,    0.6, -999.0
21-06-2023, 00:11:17,    235,    0.0,   13.2,   0.00,   0.00, 1009.0,    0.4, -999.0
21-06-2023, 00:11:26,    236,    0.0,   13.2,   0.00,   0.00, 1009.0,    0.5, -999.0
21-06-2023, 00:11:36,    238,    0.4,   13.2,   0.00,   0.00, 1009.2,    0.9, -999.0
21-06-2023, 00:11:46,    240,    0.0,   13.2,   0.00,   0.00, 1009.0,    0.3, -999.0
21-06-2023, 00:11:57,    238,    0.0,   13.2,   0.00,   0.00, 1009.0,    0.6, -999.0
21-06-2023, 00:12:06,    236,    0.0,   13.3,   0.00,   0.00, 1009.0,    0.6, -999.0
21-06-2023, 00:12:16,    236,    0.0,   13.3,   0.00,   0.00, 1009.1,    0.5, -999.0
21-06-2023, 00:12:26,    236,    0.0,   13.3,   0.00,   0.00, 1009.0,    0.7, -999.0
21-06-2023, 00:12:36,    236,    0.0,   13.2,   0.00,   0.00, 1009.0,    0.5, -999.0
21-06-2023, 00:12:46,    237,    0.0,   13.2,   0.00,   0.00, 1009.0,    0.4, -999.0
21-06-2023, 00:12:56,    241,    0.0,   13.3,   0.00,   0.00, 1009.0,    0.4, -999.0
21-06-2023, 00:13:06,    237,    0.0,   13.3,   0.00,   0.00, 1009.0,    0.4, -999.0
21-06-2023, 00:13:16,    237,    0.0,   13.3,   0.00,   0.00, 1009.0,    0.4, -999.0
21-06-2023, 00:13:26,    237,    0.0,   13.2,   0.00,   0.00, 1009.0,    0.5, -999.0
21-06-2023, 00:13:36,    238,    0.0,   13.3,   0.00,   0.00, 1009.1,    0.6, -999.0
21-06-2023, 00:13:46,    277,    0.0,   13.3,   0.00,   0.00, 1009.1,    0.6, -999.0
21-06-2023, 00:13:56,    283,    0.0,   13.3,   0.00,   0.00, 1009.0,    0.4, -999.0
21-06-2023, 00:14:06,    285,    0.0,   13.3,   0.00,   0.00, 1009.1,    0.4, -999.0
21-06-2023, 00:14:16,    285,    0.0,   13.3,   0.00,   0.00, 1009.1,    0.5, -999.0
21-06-2023, 00:14:26,    285,    0.0,   13.2,   0.00,   0.00, 1009.1,    0.3, -999.0
21-06-2023, 00:14:36,    285,    0.0,   13.2,   0.00,   0.00, 1009.1,    0.2, -999.0
21-06-2023, 00:14:46,    285,    0.0,   13.3,   0.00,   0.00, 1009.1,    0.5, -999.0
21-06-2023, 00:14:56,    285,    0.0,   13.2,   0.00,   0.00, 1009.0,    0.4, -999.0
21-06-2023, 00:15:06,    247,    0.0,   13.3,   0.00,   0.00, 1009.1,    0.6, -999.0
21-06-2023, 00:15:16,    247,    0.0,   13.3,   0.00,   0.00, 1009.1,    0.5, -999.0
21-06-2023, 00:15:26,    248,    0.0,   13.3,   0.00,   0.00, 1009.1,    0.4, -999.0
21-06-2023, 00:15:36,    247,    0.0,   13.3,   0.00,   0.00, 1009.1,    0.5, -999.0
21-06-2023, 00:15:46,    247,    0.0,   13.3,   0.00,   0.00, 1009.1,    0.4, -999.0
21-06-2023, 00:15:56,    247,    0.0,   13.2,   0.00,   0.00, 1009.1,    0.5, -999.0
21-06-2023, 00:16:06,    247,    0.0,   13.3,   0.00,   0.00, 1009.1,    0.4, -999.0
21-06-2023, 00:16:16,    247,    0.0,   13.3,   0.00,   0.00, 1009.1,    0.4, -999.0
21-06-2023, 00:16:26,    247,    0.0,   13.3,   0.00,   0.00, 1009.0,    0.6, -999.0
21-06-2023, 00:16:36,    219,    0.0,   13.2,   0.00,   0.00, 1009.0,    0.5, -999.0
21-06-2023, 00:16:46,    219,    0.0,   13.3,   0.00,   0.00, 1009.0,    0.4, -999.0
21-06-2023, 00:16:56,    219,    0.0,   13.3,   0.00,   0.00, 1009.0,    0.6, -999.0
21-06-2023, 00:17:06,    220,    0.0,   13.3,   0.00,   0.00, 1009.0,    0.5, -999.0
21-06-2023, 00:17:16,    220,    0.0,   13.3,   0.00,   0.00, 1009.0,    0.6, -999.0
21-06-2023, 00:17:26,    220,    0.0,   13.3,   0.00,   0.00, 1009.0,    0.5, -999.0
21-06-2023, 00:17:35,    220,    0.0,   13.3,   0.00,   0.00, 1009.0,    0.7, -999.0
21-06-2023, 00:17:46,    220,    0.0,   13.3,   0.00,   0.00, 1009.0,    0.3, -999.0
21-06-2023, 00:17:56,    219,    0.0,   13.2,   0.00,   0.00, 1009.0,    0.4, -999.0
21-06-2023, 00:18:06,    219,    0.0,   13.3,   0.00,   0.00, 1009.0,    0.6, -999.0
21-06-2023, 00:18:15,    220,    0.0,   13.3,   0.00,   0.00, 1009.0,    0.3, -999.0
21-06-2023, 00:18:26,    220,    0.0,   13.2,   0.00,   0.00, 1009.1,    0.5, -999.0
21-06-2023, 00:18:36,    220,    0.0,   13.2,   0.00,   0.00, 1009.1,    0.4, -999.0
21-06-2023, 00:18:45,    220,    0.0,   13.3,   0.00,   0.00, 1009.1,    0.6, -999.0
21-06-2023, 00:18:55,    220,    0.0,   13.3,   0.00,   0.00, 1009.1,    0.7, -999.0
21-06-2023, 00:19:06,    220,    0.0,   13.5,   0.00,   0.00, 1009.1,    0.4, -999.0
21-06-2023, 00:19:15,    221,    0.0,   13.3,   0.00,   0.00, 1009.0,    0.5, -999.0
21-06-2023, 00:19:25,    221,    0.0,   13.3,   0.00,   0.00, 1009.0,    0.7, -999.0
21-06-2023, 00:19:35,    220,    0.0,   13.3,   0.00,   0.00, 1009.0,    0.3, -999.0
21-06-2023, 00:19:46,    220,    0.0,   13.3,   0.00,   0.00, 1009.0,    0.6, -999.0
21-06-2023, 00:19:55,    220,    0.0,   13.3,   0.00,   0.00, 1009.0,    0.3, -999.0
21-06-2023, 00:20:05,    197,    0.0,   13.2,   0.00,   0.00, 1009.0,    0.6, -999.0
21-06-2023, 00:20:15,    220,    0.0,   13.3,   0.00,   0.00, 1009.0,    0.8, -999.0
21-06-2023, 00:20:25,    220,    0.0,   13.3,   0.00,   0.00, 1009.0,    0.4, -999.0
21-06-2023, 00:20:35,    221,    0.0,   13.3,   0.00,   0.00, 1009.0,    0.3, -999.0
21-06-2023, 00:20:45,    221,    0.0,   13.3,   0.00,   0.00, 1009.1,    0.4, -999.0
21-06-2023, 00:20:55,    222,    0.0,   13.2,   0.00,   0.00, 1009.1,    0.4, -999.0
21-06-2023, 00:21:05,    222,    0.0,   13.3,   0.00,   0.00, 1009.1,    0.2, -999.0
21-06-2023, 00:21:15,    222,    0.0,   13.2,   0.00,   0.00, 1009.1,    0.9, -999.0
21-06-2023, 00:21:25,    222,    0.0,   13.1,   0.00,   0.00, 1009.0,    0.6, -999.0
21-06-2023, 00:21:35,    222,    0.0,   13.3,   0.00,   0.00, 1009.1,    0.5, -999.0
21-06-2023, 00:21:45,    221,    0.0,   13.3,   0.00,   0.00, 1009.0,    0.4, -999.0
21-06-2023, 00:21:55,    222,    0.0,   13.3,   0.00,   0.00, 1009.1,    0.3, -999.0
21-06-2023, 00:22:05,    222,    0.0,   13.3,   0.00,   0.00, 1009.0,    0.6, -999.0
21-06-2023, 00:22:15,    222,    0.0,   13.3,   0.00,   0.00, 1009.1,    0.7, -999.0
21-06-2023, 00:22:25,    222,    0.0,   13.3,   0.00,   0.00, 1009.1,    0.4, -999.0
21-06-2023, 00:22:35,    222,    0.0,   13.4,   0.00,   0.00, 1009.1,    0.4, -999.0
21-06-2023, 00:22:45,    190,    0.0,   13.3,   0.00,   0.00, 1009.1,    0.3, -999.0
21-06-2023, 00:22:55,    192,    0.1,   13.3,   0.00,   0.00, 1009.1,    0.5, -999.0
21-06-2023, 00:23:05,    193,    0.2,   13.3,   0.00,   0.00, 1009.2,    0.6, -999.0
21-06-2023, 00:23:15,    192,    0.1,   13.3,   0.00,   0.00, 1009.1,    0.3, -999.0
21-06-2023, 00:23:25,    192,    0.0,   13.2,   0.00,   0.00, 1009.1,    0.0, -999.0
21-06-2023, 00:23:35,    193,    0.0,   13.2,   0.00,   0.00, 1009.1,    0.7, -999.0
21-06-2023, 00:23:45,    192,    0.0,   13.2,   0.00,   0.00, 1009.1,    0.8, -999.0
21-06-2023, 00:23:55,    193,    0.0,   13.3,   0.00,   0.00, 1009.1,    0.5, -999.0
21-06-2023, 00:24:05,    193,    0.0,   13.3,   0.00,   0.00, 1009.1,    0.9, -999.0
21-06-2023, 00:24:15,    193,    0.0,   13.3,   0.00,   0.00, 1009.1,    0.2, -999.0
21-06-2023, 00:24:25,    194,    0.3,   13.3,   0.00,   0.00, 1009.2,    0.5, -999.0
21-06-2023, 00:24:35,    195,    0.0,   13.3,   0.00,   0.00, 1009.1,    0.7, -999.0
21-06-2023, 00:24:45,    195,    0.0,   13.3,   0.00,   0.00, 1009.1,    0.3, -999.0
21-06-2023, 00:24:54,    196,    0.0,   13.3,   0.00,   0.00, 1009.1,    0.3, -999.0
21-06-2023, 00:25:05,    195,    0.0,   13.2,   0.00,   0.00, 1009.1,    0.3, -999.0
21-06-2023, 00:25:15,    196,    0.0,   13.2,   0.00,   0.00, 1009.1,    0.5, -999.0
21-06-2023, 00:25:25,    206,    0.0,   13.3,   0.00,   0.00, 1009.1,    0.6, -999.0
21-06-2023, 00:25:35,    206,    0.0,   13.2,   0.00,   0.00, 1009.1,    0.2, -999.0
21-06-2023, 00:25:45,    206,    0.0,   13.2,   0.00,   0.00, 1009.1,    0.6, -999.0
21-06-2023, 00:25:55,    215,    0.0,   13.3,   0.00,   0.00, 1009.1,    0.2, -999.0
21-06-2023, 00:26:04,    267,    1.2,   13.2,   0.00,   0.00, 1009.2,    0.4, -999.0
21-06-2023, 00:26:15,    266,    0.9,   13.3,   0.00,   0.00, 1009.2,    0.4, -999.0
21-06-2023, 00:26:25,    265,    0.8,   13.3,   0.00,   0.00, 1009.2,    0.5, -999.0
21-06-2023, 00:26:34,    265,    0.1,   13.2,   0.00,   0.00, 1009.2,    0.2, -999.0
21-06-2023, 00:26:44,    265,    0.0,   13.2,   0.00,   0.00, 1009.1,    0.4, -999.0
21-06-2023, 00:26:55,    263,    0.1,   13.1,   0.00,   0.00, 1009.1,    0.5, -999.0
21-06-2023, 00:27:05,    251,    0.7,   13.2,   0.00,   0.00, 1009.2,    0.4, -999.0
21-06-2023, 00:27:14,    252,    0.0,   13.2,   0.00,   0.00, 1009.1,    0.4, -999.0
21-06-2023, 00:27:24,    251,    0.0,   13.2,   0.00,   0.00, 1009.1,    0.4, -999.0
21-06-2023, 00:27:35,    251,    0.0,   13.2,   0.00,   0.00, 1009.1,    0.4, -999.0
21-06-2023, 00:27:44,    252,    0.0,   13.2,   0.00,   0.00, 1009.1,    0.3, -999.0
21-06-2023, 00:27:54,    252,    0.0,   13.2,   0.00,   0.00, 1009.1,    0.3, -999.0
21-06-2023, 00:28:04,    270,    0.7,   13.2,   0.00,   0.00, 1009.1,    0.5, -999.0
21-06-2023, 00:28:14,    276,    1.4,   13.3,   0.00,   0.00, 1009.2,    0.5, -999.0
21-06-2023, 00:28:24,    278,    0.6,   13.3,   0.00,   0.00, 1009.2,    0.6, -999.0
21-06-2023, 00:28:34,    269,    0.8,   13.3,   0.00,   0.00, 1009.2,    0.4, -999.0
21-06-2023, 00:28:44,    269,    0.4,   13.3,   0.00,   0.00, 1009.2,    0.9, -999.0
21-06-2023, 00:28:54,    269,    1.5,   13.3,   0.00,   0.00, 1009.2,    0.5, -999.0
21-06-2023, 00:29:04,    273,    0.9,   13.2,   0.00,   0.00, 1009.2,    0.6, -999.0
21-06-2023, 00:29:14,    276,    0.4,   13.2,   0.00,   0.00, 1009.1,    0.4, -999.0
21-06-2023, 00:29:24,    275,    1.6,   13.2,   0.00,   0.00, 1009.2,    0.5, -999.0
21-06-2023, 00:29:34,    269,    1.1,   13.2,   0.00,   0.00, 1009.2,    0.4, -999.0
21-06-2023, 00:29:44,    269,    0.6,   13.2,   0.00,   0.00, 1009.1,    0.5, -999.0
21-06-2023, 00:29:54,    270,    0.3,   13.2,   0.00,   0.00, 1009.2,    0.5, -999.0
21-06-2023, 00:30:04,    268,    0.2,   13.1,   0.00,   0.00, 1009.1,    0.4, -999.0
21-06-2023, 00:30:14,    267,    1.0,   13.1,   0.00,   0.00, 1009.2,    0.4, -999.0
21-06-2023, 00:30:24,    267,    0.4,   13.1,   0.00,   0.00, 1009.1,    0.6, -999.0
21-06-2023, 00:30:34,    266,    0.2,   13.2,   0.00,   0.00, 1009.1,    0.4, -999.0
21-06-2023, 00:30:44,    266,    0.0,   13.1,   0.00,   0.00, 1009.1,    0.3, -999.0
21-06-2023, 00:30:54,    268,    0.4,   13.1,   0.00,   0.00, 1009.1,    0.7, -999.0
21-06-2023, 00:31:04,    223,    0.9,   13.2,   0.00,   0.00, 1009.2,    0.9, -999.0
21-06-2023, 00:31:14,    225,    0.4,   13.2,   0.00,   0.00, 1009.2,    0.2, -999.0
21-06-2023, 00:31:24,    225,    0.0,   13.2,   0.00,   0.00, 1009.1,    0.3, -999.0
21-06-2023, 00:31:34,    225,    0.0,   13.1,   0.00,   0.00, 1009.0,    0.4, -999.0
21-06-2023, 00:31:44,    225,    0.0,   13.1,   0.00,   0.00, 1009.1,    0.4, -999.0
21-06-2023, 00:31:54,    225,    0.0,   13.2,   0.00,   0.00, 1009.1,    0.5, -999.0
21-06-2023, 00:32:04,    225,    0.1,   13.3,   0.00,   0.00, 1009.1,    0.7, -999.0
21-06-2023, 00:32:14,    235,    1.6,   13.3,   0.00,   0.00, 1009.2,    0.7, -999.0
21-06-2023, 00:32:24,    236,    0.9,   13.3,   0.00,   0.00, 1009.2,    0.6, -999.0
21-06-2023, 00:32:34,    236,    0.0,   13.1,   0.00,   0.00, 1009.1,    0.4, -999.0
21-06-2023, 00:32:44,    237,    0.0,   13.2,   0.00,   0.00, 1009.1,    0.5, -999.0
21-06-2023, 00:32:54,    236,    0.0,   13.3,   0.00,   0.00, 1009.1,    0.4, -999.0
21-06-2023, 00:33:04,    236,    0.3,   13.3,   0.00,   0.00, 1009.2,    0.4, -999.0
21-06-2023, 00:33:14,    237,    0.4,   13.2,   0.00,   0.00, 1009.2,    0.7, -999.0
21-06-2023, 00:33:24,    237,    0.6,   13.3,   0.00,   0.00, 1009.2,    0.5, -999.0
21-06-2023, 00:33:34,    238,    0.0,   13.2,   0.00,   0.00, 1009.1,    0.4, -999.0
21-06-2023, 00:33:43,    238,    0.2,   13.3,   0.00,   0.00, 1009.2,    0.5, -999.0
21-06-2023, 00:33:54,    238,    0.2,   13.2,   0.00,   0.00, 1009.2,    0.6, -999.0
21-06-2023, 00:34:04,    237,    0.1,   13.2,   0.00,   0.00, 1009.1,    0.3, -999.0
21-06-2023, 00:34:14,    237,    0.0,   13.1,   0.00,   0.00, 1009.1,    0.6, -999.0
21-06-2023, 00:34:23,    238,    0.0,   13.1,   0.00,   0.00, 1009.1,    0.5, -999.0
21-06-2023, 00:34:34,    237,    0.0,   13.1,   0.00,   0.00, 1009.1,    0.5, -999.0
21-06-2023, 00:34:44,    237,    0.0,   13.1,   0.00,   0.00, 1009.1,    0.3, -999.0
21-06-2023, 00:34:53,    237,    0.0,   13.1,   0.00,   0.00, 1009.1,    0.6, -999.0
21-06-2023, 00:35:03,    236,    0.0,   13.1,   0.00,   0.00, 1009.1,    0.4, -999.0
21-06-2023, 00:35:14,    237,    0.0,   13.1,   0.00,   0.00, 1009.1,    0.4, -999.0
21-06-2023, 00:35:23,    237,    0.0,   13.1,   0.00,   0.00, 1009.1,    0.3, -999.0
21-06-2023, 00:35:33,    237,    0.0,   13.1,   0.00,   0.00, 1009.1,    0.5, -999.0
21-06-2023, 00:35:43,    242,    0.0,   13.1,   0.00,   0.00, 1009.1,    0.6, -999.0
21-06-2023, 00:35:54,    237,    0.0,   13.1,   0.00,   0.00, 1009.0,    0.5, -999.0
21-06-2023, 00:36:03,    237,    0.0,   13.1,   0.00,   0.00, 1009.0,    0.4, -999.0
21-06-2023, 00:36:13,    237,    0.0,   13.1,   0.00,   0.00, 1009.1,    0.4, -999.0
21-06-2023, 00:36:23,    238,    0.0,   13.1,   0.00,   0.00, 1009.1,    0.7, -999.0
21-06-2023, 00:36:33,    237,    0.0,   13.1,   0.00,   0.00, 1009.0,    0.5, -999.0
21-06-2023, 00:36:43,    237,    0.0,   13.1,   0.00,   0.00, 1009.1,    0.4, -999.0
21-06-2023, 00:36:53,    237,    0.0,   13.1,   0.00,   0.00, 1009.1,    0.5, -999.0
21-06-2023, 00:37:03,    237,    0.0,   13.1,   0.00,   0.00, 1009.1,    0.6, -999.0
21-06-2023, 00:37:13,    237,    0.0,   13.1,   0.00,   0.00, 1009.0,    0.3, -999.0
21-06-2023, 00:37:23,    255,    0.6,   13.1,   0.00,   0.00, 1009.1,    0.5, -999.0
21-06-2023, 00:37:33,    265,    1.3,   13.1,   0.00,   0.00, 1009.2,    0.5, -999.0
21-06-2023, 00:37:43,    236,    1.4,   13.1,   0.00,   0.00, 1009.2,    0.6, -999.0
21-06-2023, 00:37:53,    211,    1.1,   13.1,   0.00,   0.00, 1009.2,    0.4, -999.0
21-06-2023, 00:38:03,    250,    1.6,   13.1,   0.00,   0.00, 1009.2,    0.5, -999.0
21-06-2023, 00:38:13,    237,    2.2,   13.1,   0.00,   0.00, 1009.2,    0.5, -999.0
21-06-2023, 00:38:23,    235,    1.2,   13.1,   0.00,   0.00, 1009.2,    0.5, -999.0
21-06-2023, 00:38:33,    233,    0.9,   13.1,   0.00,   0.00, 1009.2,    0.5, -999.0
21-06-2023, 00:38:43,    235,    0.0,   13.1,   0.00,   0.00, 1009.1,    0.5, -999.0
21-06-2023, 00:38:53,    272,    0.0,   13.0,   0.00,   0.00, 1009.1,    0.4, -999.0
21-06-2023, 00:39:03,    272,    0.0,   13.1,   0.00,   0.00, 1009.1,    0.5, -999.0
21-06-2023, 00:39:13,    272,    0.0,   13.1,   0.00,   0.00, 1009.1,    0.4, -999.0
21-06-2023, 00:39:23,    272,    0.0,   13.0,   0.00,   0.00, 1009.1,    0.5, -999.0
21-06-2023, 00:39:33,    272,    0.0,   13.0,   0.00,   0.00, 1009.1,    0.5, -999.0
21-06-2023, 00:39:43,    230,    0.7,   13.1,   0.00,   0.00, 1009.1,    0.4, -999.0
21-06-2023, 00:39:53,    255,    2.8,   13.1,   0.00,   0.00, 1009.2,    0.6, -999.0
21-06-2023, 00:40:03,    257,    2.7,   13.1,   0.00,   0.00, 1009.2,    0.4, -999.0
21-06-2023, 00:40:13,    254,    1.6,   13.1,   0.00,   0.00, 1009.2,    0.7, -999.0
21-06-2023, 00:40:23,    251,    0.8,   13.1,   0.00,   0.00, 1009.2,    0.6, -999.0
21-06-2023, 00:40:33,    251,    1.6,   13.1,   0.00,   0.00, 1009.2,    0.6, -999.0
21-06-2023, 00:40:43,    250,    1.9,   13.0,   0.00,   0.00, 1009.2,    0.5, -999.0
21-06-2023, 00:40:53,    250,    0.0,   13.0,   0.00,   0.00, 1009.1,    0.4, -999.0
21-06-2023, 00:41:03,    250,    0.0,   13.0,   0.00,   0.00, 1009.1,    0.5, -999.0
21-06-2023, 00:41:13,    261,    0.0,   13.0,   0.00,   0.00, 1009.1,    0.7, -999.0
21-06-2023, 00:41:23,    260,    0.0,   13.0,   0.00,   0.00, 1009.1,    0.4, -999.0
21-06-2023, 00:41:32,    260,    0.0,   13.0,   0.00,   0.00, 1009.1,    0.8, -999.0
21-06-2023, 00:41:43,    272,    0.0,   13.0,   0.00,   0.00, 1009.1,    0.6, -999.0
21-06-2023, 00:41:53,    270,    0.0,   13.0,   0.00,   0.00, 1009.1,    0.6, -999.0
21-06-2023, 00:42:03,    271,    0.0,   13.0,   0.00,   0.00, 1009.1,    0.4, -999.0
21-06-2023, 00:42:12,    270,    0.0,   13.0,   0.00,   0.00, 1009.1,    0.5, -999.0
21-06-2023, 00:42:23,    273,    0.0,   12.9,   0.00,   0.00, 1009.1,    0.3, -999.0
21-06-2023, 00:42:33,    270,    0.0,   13.0,   0.00,   0.00, 1009.1,    0.3, -999.0
21-06-2023, 00:42:42,    269,    0.0,   13.0,   0.00,   0.00, 1009.1,    0.4, -999.0
21-06-2023, 00:42:52,    269,    0.0,   12.9,   0.00,   0.00, 1009.1,    0.4, -999.0
21-06-2023, 00:43:03,    269,    0.0,   13.1,   0.00,   0.00, 1009.1,    0.3, -999.0
21-06-2023, 00:43:12,    268,    0.0,   13.1,   0.00,   0.00, 1009.1,    0.7, -999.0
21-06-2023, 00:43:22,    269,    0.0,   13.1,   0.00,   0.00, 1009.1,    0.4, -999.0
21-06-2023, 00:43:32,    269,    0.0,   13.1,   0.00,   0.00, 1009.1,    0.5, -999.0
21-06-2023, 00:43:43,    269,    0.0,   13.1,   0.00,   0.00, 1009.1,    0.3, -999.0
21-06-2023, 00:43:52,    269,    0.0,   13.1,   0.00,   0.00, 1009.1,    0.5, -999.0
21-06-2023, 00:44:02,    269,    0.0,   13.0,   0.00,   0.00, 1009.1,    0.3, -999.0
21-06-2023, 00:44:12,    269,    0.0,   12.9,   0.00,   0.00, 1009.1,    0.3, -999.0
21-06-2023, 00:44:22,    267,    0.0,   13.0,   0.00,   0.00, 1009.2,    0.3, -999.0
21-06-2023, 00:44:32,    250,    0.1,   13.0,   0.00,   0.00, 1009.1,    0.3, -999.0
21-06-2023, 00:44:42,    256,    1.4,   12.9,   0.00,   0.00, 1009.2,    0.7, -999.0
21-06-2023, 00:44:52,    231,    0.8,   13.1,   0.00,   0.00, 1009.2,    0.6, -999.0
21-06-2023, 00:45:02,    231,    0.2,   13.1,   0.00,   0.00, 1009.2,    0.1, -999.0
21-06-2023, 00:45:12,    231,    0.0,   13.1,   0.00,   0.00, 1009.1,    0.4, -999.0
21-06-2023, 00:45:22,    232,    0.0,   13.0,   0.00,   0.00, 1009.1,    0.4, -999.0
21-06-2023, 00:45:32,    231,    0.0,   13.0,   0.00,   0.00, 1009.1,    0.4, -999.0
21-06-2023, 00:45:42,    231,    0.0,   13.0,   0.00,   0.00, 1009.1,    0.4, -999.0
21-06-2023, 00:45:52,    230,    0.0,   13.0,   0.00,   0.00, 1009.2,    0.4, -999.0
21-06-2023, 00:46:02,    232,    0.7,   13.1,   0.00,   0.00, 1009.2,    0.7, -999.0
21-06-2023, 00:46:12,    233,    0.8,   13.0,   0.00,   0.00, 1009.3,    0.4, -999.0
21-06-2023, 00:46:22,    232,    0.0,   13.0,   0.00,   0.00, 1009.1,    0.3, -999.0
21-06-2023, 00:46:32,    238,    0.4,   13.0,   0.00,   0.00, 1009.3,    0.4, -999.0
21-06-2023, 00:46:42,    238,    0.5,   13.0,   0.00,   0.00, 1009.3,    0.5, -999.0
21-06-2023, 00:46:52,    239,    0.7,   13.0,   0.00,   0.00, 1009.3,    0.5, -999.0